sat.trackr.live / text

‹ back to catalog

STARLINK-1578

NORAD 46082 · 2020-055BH

PAYLOAD ACTIVE UNKNOWN

§ Identity

Operator
Country
US
Launch date
2020-08-07
Launch site
AFETR
Launch vehicle
Mass (kg)
RCS (m²)

Purposes: comms

External: N2YO · Heavens-Above · Gunter

§ Orbital elements

Epoch: 2026-05-25T04:01:13.408320Z

Period
93.88 min
Inclination
53.1586°
Eccentricity
0.0011730
Mean motion
15.33839960 rev/d
Perigee alt
456.3 km
Apogee alt
472.4 km
Semi-major
6,842.5 km
B*
1.5802e-2
RAAN
105.9426°
Arg perigee
227.9845°
Mean anomaly
132.0159°
Rev number
32,094

§ Raw data

STARLINK-15781 46082U 20055BH  26145.16751630  .00565985  00000+0  15802-1 0  99932 46082  53.1586 105.9426 0011730 227.9845 132.0159 15.33839960320942

JSON: /api/v1/satellites/46082 · /tle

For live sub-satellite position, see the globe view (requires WebGL).

§ Visibility from observer

Set your observer location to see the next 7 days of passes ≥ 10°. The values pass through the URL so the page stays shareable.

No JS? Fill the form by hand. The geolocation button needs JavaScript.